TimeCDT,TemperatureF,Dew PointF,Humidity,Sea Level PressureIn,VisibilityMPH,Wind Direction,Wind SpeedMPH,Gust SpeedMPH,PrecipitationIn,Events,Conditions,WindDirDegrees,DateUTC
12:03 AM,73.4,73.4,100,30.25,10.0,East,20.7,26.5,N/A,,Mostly Cloudy,90,2013-07-17 05:03:00
12:24 AM,71.6,71.6,100,30.25,5.0,ESE,16.1,25.3,N/A,Rain,Light Rain,110,2013-07-17 05:24:00
12:25 AM,71.6,71.6,100,30.25,5.0,ESE,18.4,25.3,N/A,Rain,Light Rain,110,2013-07-17 05:25:00
12:30 AM,71.6,71.6,100,30.25,3.0,ESE,13.8,-,N/A,Rain,Light Rain,120,2013-07-17 05:30:00
12:35 AM,69.8,69.8,100,30.25,4.0,ESE,12.7,-,N/A,Rain,Light Rain,110,2013-07-17 05:35:00
12:48 AM,69.8,69.8,100,30.25,10.0,East,12.7,-,N/A,,Scattered Clouds,100,2013-07-17 05:48:00
12:58 AM,70.0,70.0,100,30.21,10.0,East,12.7,-,0.05,,Partly Cloudy,100,2013-07-17 05:58:00
1:58 AM,69.3,69.3,100,30.20,10.0,East,9.2,-,N/A,,Scattered Clouds,90,2013-07-17 06:58:00
2:58 AM,68.5,68.5,100,30.19,10.0,NE,3.5,-,0.01,,Partly Cloudy,50,2013-07-17 07:58:00
3:58 AM,69.1,69.1,100,30.19,10.0,East,5.8,-,N/A,,Scattered Clouds,80,2013-07-17 08:58:00
4:58 AM,70.0,70.0,100,30.19,10.0,ENE,3.5,-,N/A,,Scattered Clouds,60,2013-07-17 09:58:00
5:38 AM,69.8,69.8,100,30.25,10.0,ESE,3.5,-,N/A,,Light Drizzle,110,2013-07-17 10:38:00
5:43 AM,69.8,69.8,100,30.25,10.0,ESE,3.5,-,N/A,,Light Drizzle,120,2013-07-17 10:43:00
5:48 AM,69.8,69.8,100,30.25,10.0,ESE,2.3,-,N/A,,Mostly Cloudy,120,2013-07-17 10:48:00
5:58 AM,69.8,69.8,100,30.22,10.0,SE,3.5,-,0.00,,Mostly Cloudy,130,2013-07-17 10:58:00
6:15 AM,69.8,69.8,100,30.26,10.0,SE,3.5,-,N/A,,Light Drizzle,130,2013-07-17 11:15:00
6:44 AM,69.8,69.8,100,30.27,10.0,East,4.6,-,N/A,,Scattered Clouds,100,2013-07-17 11:44:00
6:58 AM,69.8,69.8,100,30.24,10.0,East,5.8,-,0.00,,Partly Cloudy,100,2013-07-17 11:58:00
7:58 AM,71.2,71.2,100,30.24,10.0,East,6.9,-,N/A,,Partly Cloudy,90,2013-07-17 12:58:00
8:00 AM,71.6,71.6,100,30.28,10.0,East,6.9,-,N/A,,Partly Cloudy,90,2013-07-17 13:00:00
8:10 AM,71.6,71.6,100,30.27,10.0,East,8.1,-,N/A,,Mostly Cloudy,80,2013-07-17 13:10:00
8:20 AM,71.6,71.6,100,30.28,10.0,East,8.1,-,N/A,,Mostly Cloudy,90,2013-07-17 13:20:00
8:33 AM,71.6,71.6,100,30.28,10.0,East,8.1,-,N/A,,Light Drizzle,100,2013-07-17 13:33:00
8:43 AM,71.6,71.6,100,30.29,10.0,East,10.4,-,N/A,,Light Drizzle,100,2013-07-17 13:43:00
8:55 AM,71.6,71.6,100,30.29,10.0,East,6.9,-,N/A,,Overcast,100,2013-07-17 13:55:00
8:58 AM,72.1,72.1,100,30.26,10.0,East,6.9,-,0.00,,Overcast,100,2013-07-17 13:58:00
9:13 AM,71.6,71.6,100,30.29,10.0,East,8.1,-,N/A,,Mostly Cloudy,90,2013-07-17 14:13:00
9:58 AM,73.6,73.6,100,30.27,10.0,ESE,10.4,-,N/A,,Mostly Cloudy,110,2013-07-17 14:58:00
10:03 AM,73.4,73.4,100,30.30,10.0,East,9.2,-,N/A,,Mostly Cloudy,100,2013-07-17 15:03:00
10:08 AM,73.4,73.4,100,30.30,10.0,ESE,8.1,-,N/A,,Mostly Cloudy,110,2013-07-17 15:08:00
10:13 AM,73.4,73.4,100,30.30,10.0,ESE,8.1,-,N/A,,Mostly Cloudy,120,2013-07-17 15:13:00
10:33 AM,73.4,73.4,100,30.30,10.0,SE,9.2,-,N/A,,Mostly Cloudy,140,2013-07-17 15:33:00
10:38 AM,73.4,73.4,100,30.30,10.0,SE,8.1,-,N/A,,Mostly Cloudy,140,2013-07-17 15:38:00
10:58 AM,74.3,72.5,94,30.27,10.0,SE,6.9,-,N/A,,Mostly Cloudy,140,2013-07-17 15:58:00
11:16 AM,75.2,71.6,89,30.30,10.0,Variable,6.9,-,N/A,,Light Drizzle,0,2013-07-17 16:16:00
11:25 AM,75.2,71.6,89,30.30,10.0,SE,9.2,-,N/A,,Mostly Cloudy,140,2013-07-17 16:25:00
11:40 AM,75.2,71.6,89,30.30,10.0,SE,4.6,-,N/A,,Mostly Cloudy,140,2013-07-17 16:40:00
11:45 AM,75.2,71.6,89,30.30,10.0,ESE,5.8,-,N/A,,Mostly Cloudy,120,2013-07-17 16:45:00
11:46 AM,75.2,71.6,89,30.30,10.0,ESE,5.8,-,N/A,,Light Drizzle,120,2013-07-17 16:46:00
11:54 AM,77.0,71.6,83,30.30,10.0,SSE,4.6,-,N/A,,Mostly Cloudy,160,2013-07-17 16:54:00
11:58 AM,76.3,71.1,84,30.27,10.0,ESE,5.8,-,0.00,,Mostly Cloudy,110,2013-07-17 16:58:00
12:28 PM,77.0,71.6,83,30.30,10.0,SE,6.9,-,N/A,,Mostly Cloudy,140,2013-07-17 17:28:00
12:38 PM,77.0,71.6,83,30.30,10.0,ESE,6.9,-,N/A,,Mostly Cloudy,120,2013-07-17 17:38:00
12:43 PM,78.8,71.6,78,30.29,10.0,East,5.8,-,N/A,,Mostly Cloudy,90,2013-07-17 17:43:00
12:48 PM,78.8,71.6,78,30.29,10.0,ESE,8.1,-,N/A,,Mostly Cloudy,120,2013-07-17 17:48:00
12:58 PM,77.7,71.1,80,30.26,10.0,East,8.1,-,N/A,,Mostly Cloudy,100,2013-07-17 17:58:00
1:23 PM,78.8,71.6,78,30.28,10.0,East,10.4,-,N/A,,Overcast,90,2013-07-17 18:23:00
1:33 PM,78.8,71.6,78,30.28,10.0,East,10.4,-,N/A,,Overcast,100,2013-07-17 18:33:00
1:43 PM,78.8,71.6,78,30.28,10.0,East,11.5,-,N/A,,Overcast,100,2013-07-17 18:43:00
1:58 PM,79.5,71.4,76,30.24,10.0,East,10.4,-,N/A,,Mostly Cloudy,100,2013-07-17 18:58:00
2:55 PM,82.4,71.6,70,30.24,10.0,ESE,5.8,-,N/A,,Scattered Clouds,110,2013-07-17 19:55:00
2:58 PM,81.7,71.2,70,30.21,10.0,East,5.8,-,N/A,,Mostly Cloudy,100,2013-07-17 19:58:00
3:24 PM,84.2,71.6,66,30.23,10.0,Calm,Calm,-,N/A,,Mostly Cloudy,0,2013-07-17 20:24:00
3:49 PM,86.0,69.8,58,30.22,10.0,ESE,9.2,-,N/A,,Scattered Clouds,120,2013-07-17 20:49:00
3:58 PM,85.3,69.8,60,30.18,10.0,East,9.2,-,N/A,,Mostly Cloudy,90,2013-07-17 20:58:00
4:03 PM,84.2,69.8,62,30.22,10.0,ESE,6.9,-,N/A,,Scattered Clouds,120,2013-07-17 21:03:00
4:13 PM,86.0,69.8,58,30.22,10.0,ESE,11.5,-,N/A,,Mostly Cloudy,120,2013-07-17 21:13:00
4:23 PM,87.8,69.8,55,30.22,10.0,SSE,12.7,16.1,N/A,,Mostly Cloudy,150,2013-07-17 21:23:00
4:28 PM,86.0,69.8,58,30.22,10.0,SE,9.2,16.1,N/A,,Mostly Cloudy,130,2013-07-17 21:28:00
4:38 PM,86.0,69.8,58,30.21,10.0,Variable,6.9,-,N/A,,Scattered Clouds,0,2013-07-17 21:38:00
4:58 PM,85.5,69.3,58,30.16,10.0,Variable,5.8,-,N/A,,Partly Cloudy,0,2013-07-17 21:58:00
5:39 PM,82.4,71.6,70,30.20,10.0,East,18.4,-,N/A,Rain,Light Rain,90,2013-07-17 22:39:00
5:49 PM,77.0,73.4,89,30.20,6.0,East,12.7,-,N/A,Rain,Light Rain,80,2013-07-17 22:49:00
5:54 PM,78.8,73.4,83,30.20,6.0,East,9.2,-,N/A,,Haze,80,2013-07-17 22:54:00
5:56 PM,78.8,73.4,83,30.20,9.0,East,8.1,-,N/A,,Light Drizzle,80,2013-07-17 22:56:00
5:58 PM,78.1,73.8,86,30.17,10.0,East,6.9,-,0.02,,Light Drizzle,80,2013-07-17 22:58:00
6:58 PM,81.9,71.1,70,30.16,10.0,East,13.8,-,0.00,,Mostly Cloudy,90,2013-07-17 23:58:00
7:07 PM,81.9,71.1,70,30.16,10.0,East,13.8,-,0.00,,Mostly Cloudy,90,2013-07-18 00:07:00
7:16 PM,80.6,69.8,70,30.20,10.0,East,15.0,-,N/A,,Clear,90,2013-07-18 00:16:00
7:58 PM,79.3,71.1,76,30.18,10.0,ESE,8.1,-,N/A,,Mostly Cloudy,110,2013-07-18 00:58:00
8:03 PM,78.8,71.6,78,30.21,10.0,East,8.1,-,N/A,,Clear,100,2013-07-18 01:03:00
8:58 PM,77.7,72.9,85,30.19,10.0,ESE,6.9,-,N/A,,Mostly Cloudy,120,2013-07-18 01:58:00
9:00 PM,77.0,73.4,89,30.22,10.0,ESE,6.9,-,N/A,Rain,Light Rain,120,2013-07-18 02:00:00
9:05 PM,77.0,73.4,89,30.22,10.0,ESE,6.9,-,N/A,Rain,Light Rain,120,2013-07-18 02:05:00
9:14 PM,77.0,73.4,89,30.22,10.0,SE,4.6,-,N/A,,Mostly Cloudy,140,2013-07-18 02:14:00
9:40 PM,77.0,73.4,89,30.22,10.0,SSE,9.2,-,N/A,,Overcast,150,2013-07-18 02:40:00
9:56 PM,77.0,73.4,89,30.17,10.0,SE,8.1,-,N/A,,Overcast,140,2013-07-18 02:56:00
10:58 PM,75.2,69.8,83,30.19,10.0,SSE,5.8,-,N/A,,Overcast,150,2013-07-18 03:58:00
11:58 PM,73.2,70.5,91,30.19,10.0,SE,6.9,-,N/A,,Overcast,140,2013-07-18 04:58:00